#timestamp,LO_Frequency,Hit,StdDev 
1660543215.7,286046999.8,N
1660543235.6,286047002.7,N
1660543255.4,286047002.5,N
1660543275.2,286046999.7,N
1660543295.1,286047000.2,N
1660543296.0,286047000.2,N
1660543315.8,286047000.8,N
1660543335.7,286047000.7,N
1660543355.5,286047000.9,N
1660543375.3,286047000.7,N
1660543395.2,286047001.1,N
1660543415.0,286047000.4,N
1660543415.9,286047000.4,N
1660543435.7,286046999.8,N
1660543455.6,286047002.4,N
1660543475.4,286047002.5,N
1660543495.3,286047001.4,N
1660543515.1,286047002.2,N
1660543516.0,286047002.2,N
1660543535.8,286047002.6,N
1660543555.7,286047002.4,N
1660543575.5,286047002.7,N
1660543595.3,286047002.7,N
1660543615.2,286047000.5,N
1660543635.0,286047000.8,N
1660543635.9,286047000.8,N
1660543655.8,286046999.7,N
1660543675.6,286047000.6,N
1660543695.4,286046998.2,N
1660543715.3,286046998.8,N
1660543735.1,286046998.9,N
1660543755.9,286046998.4,N
1660543775.7,286046999.3,N
1660543795.5,286046999.3,N
1660543815.4,286046998.3,N
1660543835.2,286046998.6,N
1660543855.0,286046996.5,N
1660543855.9,286046996.5,N
1660543875.8,286046999.6,N
1660543895.6,286046999.6,N
1660543915.5,286046996.6,N
1660543935.3,286046997.0,N
1660543955.1,286046996.6,N
1660543975.9,286046999.5,N
1660543995.7,286046999.6,N
1660544015.6,286046999.2,N
1660544035.4,286046999.6,N
1660544055.2,286046999.2,N
1660544075.1,286046998.8,N
1660544076.0,286046998.8,N
1660544095.8,286046998.4,N
1660544115.6,286046998.7,N
1660544135.5,286046998.8,N
1660544155.3,286046998.9,N
1660544175.2,286046998.3,N
1660544195.9,286046999.0,N
1660544215.7,286047001.2,N
1660544235.6,286046998.5,N
1660544255.4,286046998.2,N
1660544275.3,286047000.0,N
1660544295.1,286047001.0,N
1660544296.0,286047001.0,N
1660544315.8,286046998.7,N
1660544335.7,286047001.1,N
1660544355.5,286047000.3,N
1660544375.3,286047000.2,N
1660544395.2,286047002.5,N
1660544415.0,286046999.8,N
1660544415.9,286046999.8,N
1660544435.8,286047000.4,N
1660544455.6,286047000.4,N
1660544475.4,286047000.5,N
1660544495.3,286047000.7,N
1660544515.1,286047000.3,N
1660544535.9,286047001.0,N
1660544555.7,286047000.1,N
1660544575.5,286047000.8,N
1660544595.4,286047000.5,N
1660544615.2,286047000.3,N
1660544635.0,286046998.2,N
1660544636.0,286046998.2,N
1660544655.8,286047001.1,N
1660544675.6,286047002.8,N
1660544695.5,286047000.6,N
1660544715.3,286047000.0,N
1660544735.1,286047001.1,N
1660544755.9,286047000.8,N
1660544775.7,286047000.4,N
1660544795.6,286047000.8,N
1660544815.4,286047000.3,N
1660544835.2,286047000.5,N
1660544855.1,286047000.1,N
1660544856.0,286047000.1,N
1660544875.8,286047002.4,N
1660544895.7,286046999.7,N
1660544915.5,286046999.7,N
1660544935.3,286047002.1,N
1660544955.2,286047002.2,N
1660544975.0,286047001.9,N
1660544975.9,286047001.9,N
1660544995.7,286047002.6,N
1660545015.6,286047004.3,Y
1660545035.4,286047004.4,P
1660545055.3,286047001.5,N
1660545075.1,286047001.6,N
1660545095.8,286047001.8,N
1660545115.7,286047004.2,Y
1660545135.5,286047002.7,P
1660545155.4,286046999.8,N
1660545175.2,286046999.8,N
1660545195.0,286047000.1,N
1660545195.9,286047000.1,N
1660545215.8,286047000.0,N
1660545235.6,286047000.5,N
1660545255.4,286046999.7,N
1660545275.3,286047000.1,N
1660545295.1,286047000.1,N
1660545315.9,286047000.1,N
1660545335.7,286047002.4,N
1660545355.5,286046999.8,N
1660545375.4,286047000.5,N
1660545395.2,286046999.7,N
1660545415.0,286046999.9,N
1660545415.9,286046999.9,N
1660545435.8,286047000.6,N
1660545455.6,286047000.1,N
1660545475.5,286047002.7,Y
1660545495.3,286046999.7,P
1660545515.1,286047000.4,N
1660545535.9,286047000.5,N
1660545555.7,286047000.6,N
1660545575.6,286046999.0,Y
1660545595.4,286046997.3,P
1660545615.2,286046999.6,N
1660545635.1,286046999.2,N
1660545636.0,286046999.2,N
1660545655.8,286046999.3,N
1660545675.6,286046999.1,N
1660545695.5,286046996.5,Y
1660545715.3,286046998.8,P
1660545735.2,286046998.8,P
1660545755.9,286046998.4,P
1660545775.7,286046998.1,Y
1660545795.6,286047000.3,P
1660545815.4,286046999.7,N
1660545835.3,286047000.2,N
1660545855.1,286047000.4,N
1660545856.0,286047000.4,N
1660545875.8,286047000.9,N
1660545895.7,286047001.4,N
1660545915.5,286047004.3,Y
1660545935.3,286047001.7,P
1660545955.2,286047004.3,P
1660545975.0,286047003.6,N
1660545975.9,286047003.6,N
1660545995.8,286047003.6,N
1660546015.6,286047004.2,N
1660546035.4,286047004.1,N
1660546055.3,286047004.0,N
1660546075.1,286047003.7,N
1660546095.8,286047003.7,N
1660546115.7,286047003.9,Y
1660546135.5,286046998.1,P
1660546155.4,286046998.5,N
1660546175.2,286046999.1,N
1660546195.0,286046999.3,N
1660546195.9,286046999.3,N
1660546215.8,286046996.5,N
1660546235.6,286046997.0,N
1660546255.5,286046997.0,N
1660546275.3,286046997.3,N
1660546295.1,286046997.7,N
1660546315.9,286046998.0,N
1660546335.7,286046995.0,N
1660546355.5,286046995.7,N
1660546375.4,286046994.9,N
1660546395.2,286046995.0,N
1660546415.1,286046995.1,N
1660546416.0,286046995.1,N
1660546435.8,286046996.2,N
1660546455.6,286046993.3,Y
1660546475.5,286046997.6,P
1660546495.3,286046999.6,N
1660546515.1,286046999.5,N
1660546535.9,286046996.5,Y
1660546555.7,286047001.1,P
1660546575.6,286046998.7,N
1660546595.4,286046999.4,N
1660546615.2,286046999.6,N
1660546635.1,286046996.9,Y
1660546636.0,286046996.9,P
1660546655.8,286046999.5,N
1660546675.7,286046996.7,N
1660546695.5,286046999.6,N
1660546715.3,286046996.5,N
1660546735.2,286046996.6,N
1660546755.0,286046997.0,N
1660546755.9,286046997.0,N
1660546775.8,286046997.7,N
1660546795.6,286046997.6,N
